Location: Biltmore Gardens
(41.6070°N, 83.4666°W)
Time: 14:59:54
(UTC+00:00)

NOSS 3-2 (A) - Pass Details

Date: 14 July 2020
Orbit: 798 x 1410 km, 63.4° (Epoch: 08 August)

Event Time Altitude Azimuth Distance (km) Brightness Sun altitude
Exits shadow 09:31:03 - 225° (SW) 2,570 5.0 -7.3°
Reaches altitude 10° 09:31:23 10° 226° (SW) 2,445 4.9 -7.2°
Maximum altitude 09:36:58 67° 308° (NW) 979 3.5 -6.4°
Drops below altitude 10° 09:43:21 10° 31° (NNE) 2,784 7.2 -5.4°
Sets 09:46:11 0° 34° (NE) 3,835 8.2 -5.0°
